Flag for Turkey Weather past 2 weeks in Mersin, Turkey

Now
82 °F

Passing clouds.


Feels Like: 85 °F
Forecast: 70 / 91 °F
Wind: 5 mph from Northeast

Location: Adana / Sakirpasa

Current Time: Aug 28, 2015 at 8:55:10 PM

Latest Report: Aug 28, 2015 at 8:20 PM


Visibility: N/A

Pressure: 29.83 "Hg

Humidity: 62%

Dew point: 68 °F

Location of MersinLocation

Historic Weather in Mersin — Graph

°F

Mersin temperature yesterday

Maximum temperature yesterday: 93 °F (at 12:50 PM)
Minimum temperature yesterday: 68 °F (at 5:20 AM)
Average temperature yesterday: 82 °F

Past Weeks' High & Low Weather Summary

 TemperatureHumidityPressure
High97 °F (Aug 16, 1:50 PM)94% (Aug 15, 5:20 AM)29.86 "Hg (Aug 15, 5:20 AM)
Low68 °F (Aug 27, 5:20 AM)14% (Aug 26, 11:20 AM)29.62 "Hg (Aug 23, 3:50 PM)
Average85 °F62%29.74 "Hg
* Reported Aug 13 7:20 PM — Aug 28 7:50 PM, Mersin, Weather by CustomWeather, © 2015

Note: Actual official high and low records may vary slightly from our data, if they occured in-between our weather recording intervals... More about our weather records

Advertising

Mersin weather history for previous 24 hours

 ConditionsComfort  
Time TempWeatherWind HumidityBarometerVisibility
7:50 PM
Fri, Aug 28
84 °FBroken clouds.5 mph55%29.80 "HgN/A
7:20 PM84 °FBroken clouds.5 mph55%29.80 "HgN/A
6:50 PM86 °FScattered clouds.10 mph49%29.80 "HgN/A
6:20 PM88 °FPassing clouds.12 mph49%29.77 "HgN/A
5:50 PM90 °FPassing clouds.12 mph41%29.77 "HgN/A
5:20 PM91 °FSunny.13 mph32%29.77 "Hg10 mi
4:50 PM93 °FSunny.14 mph28%29.80 "Hg10 mi
4:20 PM93 °FSunny.14 mph30%29.80 "Hg10 mi
3:50 PM93 °FSunny.15 mph32%29.80 "Hg10 mi
3:20 PM95 °FPassing clouds.13 mph30%29.80 "HgN/A
2:50 PM95 °FPassing clouds.14 mph32%29.80 "HgN/A
2:20 PM97 °FPassing clouds.12 mph30%29.80 "HgN/A
1:50 PM95 °FPassing clouds.8 mph26%29.80 "HgN/A
1:20 PM93 °FPassing clouds.7 mph30%29.80 "HgN/A
12:50 PM93 °FPassing clouds.7 mph30%29.83 "HgN/A
12:20 PM93 °FSunny.5 mph32%29.83 "Hg10 mi
11:50 AM91 °FSunny.3 mph34%29.83 "Hg10 mi
11:20 AM90 °FSunny.6 mph36%29.83 "Hg10 mi
10:50 AM90 °FSunny.5 mph36%29.83 "Hg10 mi
10:20 AM90 °FSunny.3 mph41%29.83 "Hg10 mi
9:50 AM88 °FSunny.2 mph43%29.86 "Hg10 mi
9:20 AM86 °FSunny.1 mph49%29.86 "Hg10 mi
8:50 AM84 °FSunny.1 mph51%29.86 "Hg10 mi
8:20 AM82 °FPassing clouds.5 mph55%29.86 "HgN/A
7:50 AM82 °FSunny.1 mph55%29.86 "Hg10 mi
6:50 AM73 °FClear.1 mph74%29.83 "Hg10 mi
5:50 AM72 °FClear.No wind73%29.83 "Hg10 mi
5:20 AM73 °FClear.No wind69%29.83 "Hg10 mi
4:50 AM73 °FClear.No wind69%29.83 "Hg10 mi
4:20 AM77 °FClear.No wind57%29.80 "Hg10 mi
3:50 AM75 °FClear.3 mph57%29.80 "Hg10 mi
3:20 AM77 °FClear.5 mph54%29.83 "Hg10 mi
2:50 AM77 °FClear.No wind51%29.83 "Hg10 mi
2:20 AM77 °FClear.2 mph51%29.83 "Hg10 mi
1:50 AM75 °FClear.6 mph57%29.83 "Hg10 mi
1:20 AM75 °FClear.6 mph54%29.83 "Hg10 mi
12:50 AM79 °FClear.2 mph51%29.83 "Hg10 mi
12:20 AM77 °FClear.No wind54%29.83 "Hg10 mi
11:50 PM
Thu, Aug 27
79 °FClear.3 mph51%29.83 "Hg10 mi
11:20 PM79 °FClear.2 mph51%29.83 "Hg10 mi
10:50 PM79 °FClear.5 mph51%29.83 "Hg10 mi
10:20 PM77 °FClear.3 mph54%29.83 "Hg10 mi
9:50 PM77 °FClear.2 mph54%29.83 "Hg10 mi
9:20 PM79 °FClear.No wind48%29.80 "Hg10 mi
8:50 PM79 °FClear.No wind48%29.80 "Hg10 mi
8:20 PM81 °FClear.2 mph45%29.80 "Hg10 mi
Weather by CustomWeather, © 2015

See weather overviewHow to use our weather pages